Temperature
14 14 14 14 14 14 14 13 13 13 13 14 14 14 14 14 14 14 14 14 15 15 15 15 15 15 15 15 15 15 15 15 15 16 16 16 15 15
14 14 14 14 14 14 14 13 13 13 13 13 13 14 14 14 14 14 14 14 14 14 14 15 15 15 15 15 15 15 15 15 15 15 15 15 15 15
14 14 14 14 14 13 13 13 13 13 13 13 13 13 13 14 14 14 14 14 14 14 14 14 14 14 15 15 15 15 15 15 15 15 15 15 15 15
14 14 14 13 14 13 13 13 13 13 13 13 13 13 13 13 13 14 14 14 14 14 14 14 14 14 14 14 15 15 15 15 15 15 15 15 15 15
13 13 13 13 13 13 13 13 13 13 13 13 13 13 13 13 13 13 14 14 14 14 14 14 14 14 14 14 14 14 14 14 14 14 14 14 14 14
13 13 13 13 13 13 13 13 13 13 13 13 13 13 13 13 13 13 13 13 13 14 14 14 14 14 14 14 14 14 14 14 14 14 14 14 14 14
13 13 13 13 13 13 13 13 13 13 13 13 13 13 13 13 13 13 13 13 13 13 13 13 13 14 14 13 14 14 14 14 14 14 14 14 14 14
13 13 13 13 13 13 13 13 13 13 13 13 13 13 13 13 12 12 12 12 13 13 13 13 13 13 13 13 13 13 13 13 13 13 13 13 13 13
12 13 13 13 12 12 12 12 12 12 12 12 12 12 12 12 12 12 12 12 12 12 12 13 13 13 13 13 13 13 13 13 13 13 13 13 13 13
12 12 12 12 12 12 12 12 12 12 12 12 12 12 12 12 12 12 12 12 12 12 12 12 12 12 13 13 12 12 13 13 12 12 12 12 12 12
12 12 12 12 12 11 11 12 12 12 12 12 12 12 12 12 12 12 12 12 12 12 12 12 12 12 12 12 12 12 12 12 12 12 12 12 12 12
11 11 11 11 11 11 11 11 11 11 11 12 12 12 12 12 11 11 11 11 11 11 12 11 12 11 11 12 12 12 12 12 12 12 12 11 11 11
11 11 11 11 11 11 10 11 11 10 11 11 11 11 11 11 11 11 11 11 11 11 11 11 11 11 11 11 11 11 11 11 11 11 11 11 11 11
10 10 10 10 10 10 10 10 10 10 10 10 10 11 11 11 11 11 11 11 11 11 11 10 10 11 11 11 11 11 11 11 11 11 11 11 11 11
10 10 10 10 10 10 10 10 10 10 10 10 10 10 10 10 10 10 10 10 10 10 10 10 10 10 10 10 10 11 10 10 10 10 11 11 10 10
9 9 9 9 9 9 9 9 9 9 9 9 9 9 10 10 10 10 10 10 10 10 10 10 10 10 10 10 10 10 10 10 10 10 10 10 10 10
8 9 9 9 9 9 9 9 9 9 9 9 9 9 9 9 9 9 9 9 9 9 10 10 10 9 9 10 10 10 10 10 10 10 10 10 10 10
8 8 8 8 8 8 8 8 8 8 8 8 8 8 8 8 9 9 9 9 9 9 9 9 9 9 9 9 9 9 9 9 9 9 9 9 9 9
7 7 7 7 7 7 7 7 7 7 7 7 7 8 8 8 8 8 8 8 8 8 8 8 8 8 8 8 9 9 9 9 9 9 9 9 9 9
7 7 6 6 6 6 6 6 6 6 7 7 7 7 7 7 7 7 7 8 8 8 8 8 8 8 8 8 8 8 8 8 8 8 8 8 8 8
6 6 6 6 6 6 6 6 6 6 6 6 6 6 6 6 6 7 7 7 7 7 7 7 8 8 7 7 7 8 8 8 8 8 8 8 8 8
6 5 5 5 5 5 5 5 5 5 5 5 5 5 6 6 6 6 6 6 7 7 7 7 7 7 7 7 7 7 7 8 8 7 7 7 7 7
5 5 5 5 5 5 5 5 5 5 5 5 5 5 5 5 6 5 6 6 6 6 6 6 6 6 6 6 7 7 7 7 7 7 7 7 7 7
Wind_Speed
1 1 1 1 1 2 2 2 2 1 2 3 2 3 4 4 4 3 4 4 3 4 4 4 4 4 4 5 6 6 7 8 9 10 10 10 10 10
1 1 2 1 1 1 1 2 2 2 2 2 2 2 3 4 4 3 4 5 4 5 5 5 5 4 4 4 4 6 7 8 9 9 10 10 10 10
3 2 2 2 1 1 1 1 1 2 2 3 2 2 2 3 3 3 3 4 5 5 6 6 5 5 5 4 5 5 7 8 9 10 10 11 10 10
3 2 3 2 2 2 1 1 2 2 3 3 2 2 2 3 2 2 2 3 3 5 5 5 6 6 6 5 6 6 7 8 9 9 9 10 10 9
2 2 3 2 3 2 2 2 2 2 2 2 3 2 2 2 2 2 2 2 2 3 3 4 5 6 6 6 6 7 8 8 8 9 9 9 10 10
3 3 3 2 3 3 2 3 2 2 2 2 3 2 2 2 1 2 2 2 2 2 2 2 2 4 5 6 7 8 8 8 8 9 9 9 9 10
3 3 4 4 4 3 2 2 2 2 2 2 3 2 2 2 2 2 2 3 2 2 1 2 1 1 2 4 6 8 8 9 9 9 10 10 10 10
4 4 4 4 5 6 5 4 3 3 4 3 3 4 5 4 3 2 2 2 3 2 1 3 1 2 3 4 6 8 9 9 9 9 10 10 10 10
4 4 4 4 4 4 5 6 5 6 6 5 5 6 5 5 4 4 4 4 4 3 2 3 2 4 3 5 6 8 9 9 9 9 9 9 10 10
4 4 4 6 5 4 4 4 5 5 6 5 6 7 7 6 5 5 5 4 3 3 3 3 3 3 3 4 6 8 9 10 10 10 10 10 10 10
5 4 4 5 9 7 4 5 6 6 6 7 8 8 10 9 6 3 3 3 4 4 4 3 3 3 2 3 5 8 9 10 10 10 10 10 10 10
5 5 6 7 9 8 4 5 7 8 6 6 6 6 6 6 7 6 6 5 3 4 4 4 3 2 2 2 3 4 6 8 10 10 10 10 10 7
5 5 5 10 10 10 7 6 9 8 5 5 5 5 4 4 4 5 6 6 6 6 4 4 3 3 3 2 2 3 4 4 6 7 9 11 11 10
5 5 6 11 11 10 8 8 10 8 4 4 5 5 5 6 5 5 6 6 7 7 6 5 4 5 4 3 3 2 2 3 4 4 5 7 9 11
5 9 11 12 10 8 9 10 8 4 4 5 6 6 6 6 4 3 4 4 4 5 6 7 5 5 5 5 4 3 2 3 4 4 4 5 5 5
6 8 10 10 7 7 7 6 4 5 5 6 6 6 4 4 4 4 3 3 3 4 3 5 6 6 6 5 5 5 4 4 3 4 4 3 4 5
6 4 4 4 4 4 5 5 5 4 5 5 6 6 5 5 5 4 3 3 4 4 4 2 2 3 4 5 5 5 5 4 4 4 4 4 4 5
5 4 5 5 6 6 6 6 5 5 6 6 7 6 6 6 6 4 4 5 6 6 5 3 2 1 2 3 5 6 5 4 4 5 4 4 5 4
4 5 6 6 6 6 6 6 7 6 6 6 7 7 7 7 6 6 6 6 6 6 6 4 4 4 5 6 3 5 6 4 4 4 5 4 5 5
4 5 6 7 7 7 7 7 7 6 6 7 7 7 7 7 7 7 7 7 7 6 5 5 6 7 8 7 4 3 6 6 5 5 4 3 2 1
6 6 7 7 7 7 7 7 7 7 7 7 7 8 7 7 8 8 8 9 8 7 8 7 7 7 4 2 2 3 3 5 7 5 5 4 3 3
7 7 7 8 8 8 8 7 7 8 8 8 8 8 7 7 8 9 8 7 7 7 8 5 4 3 4 6 6 5 4 2 3 4 6 7 5 7
8 8 8 8 8 8 8 8 9 8 8 8 8 8 7 7 7 7 7 7 7 6 5 5 4 4 5 6 6 5 6 5 3 2 3 5 8 8
Wind_Direction
334 332 315 288 234 212 195 180 170 284 308 299 308 323 334 328 312 301 291 280 268 259 255 255 255 246 247 246 240 231 224 215 212 209 202 198 198 199
340 348 332 309 294 235 199 199 190 187 247 281 274 290 316 325 314 301 292 293 281 262 252 251 246 237 240 241 238 230 224 217 214 213 203 200 202 204
350 345 321 312 311 296 225 196 204 186 229 279 272 290 304 318 327 319 301 293 290 278 260 249 240 234 235 235 232 228 222 214 212 213 209 203 203 206
330 335 320 324 315 296 260 237 227 209 207 264 295 301 288 292 302 305 319 305 288 282 266 249 237 231 228 227 224 221 219 213 209 208 208 205 204 207
309 308 305 321 313 301 277 261 251 230 204 225 276 285 287 295 311 308 303 317 309 294 276 256 239 232 229 223 220 217 215 209 205 204 204 205 206 207
318 308 297 285 277 286 287 269 251 237 222 232 263 279 280 292 295 291 307 307 303 318 310 286 257 239 231 221 216 214 213 208 204 200 200 202 204 207
326 321 307 301 294 283 281 271 245 240 237 239 257 273 275 276 268 263 277 299 295 272 283 293 284 270 254 236 224 217 214 209 204 202 200 200 202 204
310 313 312 314 317 318 304 280 244 235 236 236 247 252 261 250 247 246 251 275 283 265 233 271 240 250 258 242 227 217 211 209 206 202 200 199 200 201
291 301 310 314 316 308 315 318 298 269 243 228 239 247 249 238 228 242 238 238 245 246 224 259 244 247 251 245 224 212 206 203 203 202 200 199 200 201
282 278 283 295 298 298 300 307 300 291 272 251 242 250 248 239 225 235 238 244 256 245 204 239 239 242 247 242 227 213 209 206 205 206 205 205 204 204
288 284 281 284 296 300 292 291 298 296 294 278 266 267 267 257 231 218 230 231 256 250 210 214 234 240 247 246 236 217 208 206 207 208 209 206 204 200
300 295 292 290 296 299 278 268 281 285 295 302 294 290 284 272 247 224 221 229 241 247 213 198 214 205 240 238 228 221 214 217 214 212 211 208 198 190
298 298 296 301 298 293 285 264 266 276 281 282 284 284 285 275 262 238 225 223 228 240 218 192 210 212 218 233 238 226 215 216 214 214 211 206 199 192
288 289 291 300 300 297 289 277 278 283 275 275 275 273 272 268 261 250 240 237 236 241 226 201 212 213 209 223 236 228 227 222 210 209 205 201 201 201
284 289 294 298 302 300 289 287 287 276 266 266 265 262 258 258 257 256 251 244 248 253 239 222 219 219 220 222 218 212 223 228 211 203 199 197 199 194
301 301 303 299 293 286 295 293 277 260 258 259 264 261 262 260 253 244 246 242 253 266 256 235 223 215 229 226 217 220 216 206 199 204 200 203 205 203
304 307 307 306 302 297 293 286 279 276 272 267 262 260 262 259 254 240 234 232 238 249 255 245 224 219 233 218 216 219 215 217 209 196 193 209 220 219
305 290 288 287 284 284 286 288 282 273 272 272 264 254 254 257 255 245 235 231 240 244 241 232 205 216 265 261 223 210 210 218 213 199 194 205 224 227
289 279 279 279 279 278 276 275 277 273 270 272 270 263 255 254 254 247 240 239 242 242 241 225 209 209 235 251 242 210 204 210 204 206 208 209 221 226
272 273 277 277 276 277 275 274 275 276 272 270 269 267 260 252 252 248 240 237 240 241 241 233 222 218 227 239 235 235 213 204 206 210 210 208 219 229
276 274 274 275 274 273 273 272 271 272 272 272 268 263 262 256 252 249 244 238 236 238 236 237 238 223 228 213 224 239 230 214 209 209 198 193 206 209
273 274 275 275 275 272 270 269 270 268 269 270 268 263 257 255 255 252 244 243 241 238 240 238 215 211 222 224 229 227 229 217 206 211 213 202 196 205
275 275 275 274 273 272 269 267 266 267 264 264 265 262 259 256 253 253 247 242 241 238 241 235 223 226 236 227 225 223 215 214 207 212 255 248 233 229
Height
1533 1533 1532 1532 1531 1531 1530 1530 1530 1529 1528 1528 1528 1528 1528 1527 1527 1528 1528 1529 1529 1529 1530 1531 1531 1532 1533 1534 1535 1536 1537 1538 1540 1542 1544 1546 1548 1550
1533 1533 1532 1531 1531 1530 1530 1529 1529 1529 1527 1527 1527 1527 1526 1526 1526 1526 1526 1526 1527 1527 1528 1529 1529 1530 1531 1532 1533 1534 1535 1536 1537 1539 1541 1543 1545 1547
1533 1532 1531 1531 1530 1529 1529 1528 1528 1527 1526 1525 1525 1525 1525 1524 1524 1524 1524 1524 1524 1525 1526 1526 1527 1527 1528 1529 1530 1531 1532 1533 1535 1536 1538 1540 1541 1543
1532 1531 1530 1529 1529 1528 1527 1527 1526 1526 1525 1523 1523 1523 1523 1522 1522 1522 1522 1522 1522 1522 1523 1524 1524 1525 1525 1526 1527 1528 1529 1530 1531 1533 1534 1536 1538 1539
1531 1530 1529 1528 1527 1526 1525 1525 1524 1524 1523 1522 1521 1521 1520 1520 1519 1519 1519 1519 1519 1520 1520 1520 1521 1521 1522 1522 1523 1524 1525 1526 1528 1529 1530 1532 1534 1535
1529 1528 1527 1526 1525 1524 1523 1523 1522 1521 1520 1519 1519 1518 1518 1517 1517 1516 1516 1516 1516 1516 1517 1517 1517 1518 1518 1519 1520 1520 1521 1523 1524 1525 1527 1528 1530 1531
1527 1526 1525 1524 1523 1522 1521 1520 1519 1518 1518 1517 1516 1515 1515 1514 1514 1514 1513 1513 1513 1513 1513 1513 1514 1514 1514 1515 1515 1516 1517 1518 1520 1521 1523 1524 1526 1527
1525 1524 1523 1522 1521 1520 1519 1518 1517 1516 1515 1514 1513 1512 1512 1511 1511 1511 1510 1510 1509 1510 1510 1510 1510 1510 1510 1511 1511 1512 1513 1514 1515 1517 1518 1519 1521 1522
1523 1521 1520 1519 1518 1517 1516 1515 1514 1513 1512 1511 1509 1509 1508 1508 1508 1507 1507 1506 1506 1506 1506 1505 1506 1505 1506 1506 1507 1507 1508 1509 1511 1512 1513 1514 1516 1517
1520 1518 1517 1516 1515 1513 1512 1511 1510 1509 1508 1507 1506 1505 1505 1504 1504 1504 1503 1502 1502 1502 1502 1501 1501 1501 1502 1502 1502 1503 1504 1504 1506 1507 1508 1509 1511 1512
1517 1515 1514 1512 1511 1510 1508 1506 1505 1504 1504 1502 1501 1501 1500 1500 1499 1499 1498 1498 1496 1496 1497 1496 1496 1496 1496 1497 1497 1498 1499 1500 1501 1502 1503 1504 1505 1507
1513 1512 1510 1509 1507 1505 1504 1502 1500 1499 1498 1497 1496 1495 1495 1494 1494 1494 1493 1493 1492 1491 1491 1492 1491 1492 1491 1491 1492 1493 1494 1495 1496 1497 1498 1499 1500 1501
1508 1507 1506 1504 1503 1501 1499 1497 1496 1494 1493 1491 1490 1489 1489 1488 1488 1488 1488 1488 1487 1486 1487 1487 1486 1486 1487 1486 1486 1487 1488 1489 1490 1491 1492 1494 1495 1496
1504 1502 1501 1500 1498 1496 1494 1492 1491 1489 1487 1485 1484 1483 1482 1482 1482 1482 1482 1482 1481 1481 1481 1481 1480 1481 1481 1480 1480 1481 1482 1483 1484 1485 1486 1488 1489 1490
1500 1498 1496 1494 1492 1491 1489 1487 1485 1483 1481 1480 1478 1477 1477 1476 1476 1476 1475 1475 1475 1474 1474 1474 1474 1474 1475 1474 1474 1475 1476 1477 1478 1479 1480 1481 1483 1484
1495 1492 1491 1489 1487 1485 1483 1481 1480 1478 1476 1474 1472 1471 1471 1470 1469 1469 1468 1468 1467 1467 1468 1468 1468 1468 1467 1468 1468 1469 1470 1470 1471 1473 1474 1475 1477 1478
1489 1487 1484 1482 1480 1478 1477 1475 1473 1472 1470 1468 1466 1465 1464 1463 1462 1462 1462 1461 1461 1460 1460 1461 1461 1461 1461 1461 1461 1462 1463 1464 1466 1467 1468 1468 1470 1472
1484 1481 1479 1476 1474 1472 1470 1468 1467 1465 1463 1462 1459 1458 1457 1456 1455 1455 1455 1454 1454 1453 1453 1454 1454 1454 1454 1454 1456 1456 1457 1458 1460 1461 1462 1462 1463 1466
1478 1475 1473 1471 1468 1466 1464 1462 1460 1459 1457 1455 1453 1451 1450 1449 1448 1447 1447 1447 1446 1446 1447 1447 1448 1447 1447 1447 1448 1450 1451 1452 1454 1455 1456 1457 1458 1460
1472 1470 1467 1465 1462 1460 1457 1455 1453 1451 1450 1448 1445 1444 1443 1441 1441 1440 1439 1439 1439 1439 1439 1440 1441 1441 1441 1441 1441 1443 1446 1446 1447 1448 1450 1451 1452 1454
1466 1463 1461 1458 1456 1453 1451 1449 1446 1444 1442 1440 1438 1437 1436 1434 1433 1432 1432 1432 1432 1432 1432 1432 1433 1435 1435 1436 1435 1436 1438 1441 1442 1443 1444 1445 1446 1447
1459 1457 1454 1451 1449 1446 1444 1441 1439 1436 1434 1433 1431 1429 1428 1427 1426 1425 1424 1424 1424 1424 1424 1425 1427 1428 1428 1428 1428 1429 1431 1433 1435 1437 1438 1440 1439 1440
1453 1450 1447 1444 1441 1438 1436 1433 1431 1429 1426 1424 1423 1421 1420 1419 1417 1417 1416 1416 1417 1417 1417 1418 1418 1419 1420 1421 1422 1423 1424 1426 1427 1429 1431 1432 1434 1436